Location: *
(58.7167°N, 26.1833°E)
Time: 04:08:35
(UTC+00:00)

Cosmos 2366 rocket - Pass Details

Date: 25 August 2019
Orbit: 956 x 996 km, 82.9° (Epoch: 20 September)

Event Time Altitude Azimuth Distance (km) Brightness Sun altitude
Rises 20:46:52 0° 346° (NNW) 3,678 8.6 -18.3°
Reaches altitude 10° 20:49:23 10° 349° (NNW) 2,733 7.6 -18.4°
Maximum altitude 20:55:40 77° 75° (ENE) 1,013 4.0 -18.7°
Enters shadow 20:58:50 32° 157° (SSE) 1,637 4.6 -18.9°
